Time,TemperatureF,DewpointF,PressureIn,WindDirection,WindDirectionDegrees,WindSpeedMPH,WindSpeedGustMPH,Humidity,HourlyPrecipIn,Conditions,Clouds,dailyrainin,SoftwareType,DateUTC
2013-04-14 00:03:00,42.0,40.0,-100.00,North,-999,0.0,-999.0,91,0.01,,,0.04,,2013-04-14 04:03:00,
2013-04-14 00:13:00,42.0,40.0,-100.00,North,-999,0.0,-999.0,91,0.01,,,0.04,,2013-04-14 04:13:00,
2013-04-14 00:23:00,42.0,40.0,-100.00,North,-999,0.0,-999.0,91,0.01,,,0.04,,2013-04-14 04:23:00,
2013-04-14 00:33:00,42.0,40.0,-100.00,North,-999,0.0,-999.0,91,0.01,,,0.04,,2013-04-14 04:33:00,
2013-04-14 00:43:00,42.0,40.0,-100.00,North,-999,0.0,-999.0,91,0.01,,,0.04,,2013-04-14 04:43:00,
2013-04-14 01:03:00,41.0,38.0,-100.00,North,-999,0.0,-999.0,88,0.00,,,0.04,,2013-04-14 05:03:00,
2013-04-14 01:12:00,41.0,38.0,-100.00,North,-999,0.0,-999.0,88,0.00,,,0.04,,2013-04-14 05:12:00,
2013-04-14 01:23:00,41.0,38.0,-100.00,North,-999,0.0,-999.0,88,0.00,,,0.04,,2013-04-14 05:23:00,
2013-04-14 01:32:00,41.0,38.0,-100.00,North,-999,0.0,-999.0,88,0.00,,,0.04,,2013-04-14 05:32:00,
2013-04-14 01:42:00,41.0,38.0,-100.00,North,-999,0.0,-999.0,88,0.00,,,0.04,,2013-04-14 05:42:00,
2013-04-14 02:02:00,41.0,38.0,-100.00,North,-999,-999.0,-999.0,89,0.00,,,0.04,,2013-04-14 06:02:00,
2013-04-14 02:12:00,41.0,38.0,-100.00,North,-999,-999.0,-999.0,89,0.00,,,0.04,,2013-04-14 06:12:00,
2013-04-14 02:22:00,41.0,38.0,-100.00,North,-999,-999.0,-999.0,89,0.00,,,0.04,,2013-04-14 06:22:00,
2013-04-14 02:32:00,41.0,38.0,-100.00,North,-999,-999.0,-999.0,89,0.00,,,0.04,,2013-04-14 06:32:00,
2013-04-14 02:42:00,41.0,38.0,-100.00,North,-999,-999.0,-999.0,89,0.00,,,0.04,,2013-04-14 06:42:00,
2013-04-14 03:03:00,39.0,36.0,-100.00,North,-999,0.0,-999.0,90,0.00,,,0.04,,2013-04-14 07:03:00,
2013-04-14 03:12:00,39.0,36.0,-100.00,North,-999,0.0,-999.0,90,0.00,,,0.04,,2013-04-14 07:12:00,
2013-04-14 03:22:00,39.0,36.0,-100.00,North,-999,0.0,-999.0,90,0.00,,,0.04,,2013-04-14 07:22:00,
2013-04-14 03:33:00,39.0,36.0,-100.00,North,-999,0.0,-999.0,90,0.00,,,0.04,,2013-04-14 07:33:00,
2013-04-14 03:42:00,39.0,36.0,-100.00,North,-999,0.0,-999.0,90,0.00,,,0.04,,2013-04-14 07:42:00,
2013-04-14 04:03:00,38.0,35.0,-100.00,North,-999,-999.0,-999.0,89,0.00,,,0.02,,2013-04-14 08:03:00,
2013-04-14 04:13:00,38.0,35.0,-100.00,North,-999,-999.0,-999.0,89,0.00,,,0.02,,2013-04-14 08:13:00,
2013-04-14 04:23:00,38.0,35.0,-100.00,North,-999,-999.0,-999.0,89,0.00,,,0.02,,2013-04-14 08:23:00,
2013-04-14 04:32:00,38.0,35.0,-100.00,North,-999,-999.0,-999.0,89,0.00,,,0.02,,2013-04-14 08:32:00,
2013-04-14 04:42:00,38.0,35.0,-100.00,North,-999,-999.0,-999.0,89,0.00,,,0.02,,2013-04-14 08:42:00,
2013-04-14 05:03:00,38.0,34.0,-100.00,North,-999,0.0,-999.0,87,0.00,,,0.01,,2013-04-14 09:03:00,
2013-04-14 05:12:00,38.0,34.0,-100.00,North,-999,0.0,-999.0,87,0.00,,,0.01,,2013-04-14 09:12:00,
2013-04-14 05:22:00,38.0,34.0,-100.00,North,-999,0.0,-999.0,87,0.00,,,0.01,,2013-04-14 09:22:00,
2013-04-14 05:33:00,38.0,34.0,-100.00,North,-999,0.0,-999.0,87,0.00,,,0.01,,2013-04-14 09:33:00,
2013-04-14 05:43:00,38.0,34.0,-100.00,North,-999,0.0,-999.0,87,0.00,,,0.01,,2013-04-14 09:43:00,
2013-04-14 06:03:00,40.0,36.0,-100.00,North,4,0.0,-999.0,84,0.00,,,0.01,,2013-04-14 10:03:00,
2013-04-14 06:13:00,40.0,36.0,-100.00,North,4,0.0,-999.0,84,0.00,,,0.01,,2013-04-14 10:13:00,
2013-04-14 06:23:00,40.0,36.0,-100.00,North,4,0.0,-999.0,84,0.00,,,0.01,,2013-04-14 10:23:00,
2013-04-14 06:33:00,40.0,36.0,-100.00,North,4,0.0,-999.0,84,0.00,,,0.01,,2013-04-14 10:33:00,
2013-04-14 06:42:00,40.0,36.0,-100.00,North,4,0.0,-999.0,84,0.00,,,0.01,,2013-04-14 10:42:00,
2013-04-14 07:03:00,40.0,35.0,-100.00,North,-999,-999.0,-999.0,81,0.00,,,0.01,,2013-04-14 11:03:00,
2013-04-14 07:13:00,40.0,35.0,-100.00,North,-999,-999.0,-999.0,81,0.00,,,0.01,,2013-04-14 11:13:00,
2013-04-14 07:23:00,40.0,35.0,-100.00,North,-999,-999.0,-999.0,81,0.00,,,0.01,,2013-04-14 11:23:00,
2013-04-14 07:33:00,40.0,35.0,-100.00,North,-999,-999.0,-999.0,81,0.00,,,0.01,,2013-04-14 11:33:00,
2013-04-14 07:42:00,40.0,35.0,-100.00,North,-999,-999.0,-999.0,81,0.00,,,0.01,,2013-04-14 11:42:00,
2013-04-14 08:02:00,42.0,35.0,-100.00,North,-999,0.0,-999.0,75,0.00,,,0.01,,2013-04-14 12:02:00,
2013-04-14 08:12:00,42.0,35.0,-100.00,North,-999,0.0,-999.0,75,0.00,,,0.01,,2013-04-14 12:12:00,
2013-04-14 08:22:00,42.0,35.0,-100.00,North,-999,0.0,-999.0,75,0.00,,,0.01,,2013-04-14 12:22:00,
2013-04-14 08:32:00,42.0,35.0,-100.00,North,-999,0.0,-999.0,75,0.00,,,0.01,,2013-04-14 12:32:00,
2013-04-14 08:42:00,42.0,35.0,-100.00,North,-999,0.0,-999.0,75,0.00,,,0.01,,2013-04-14 12:42:00,
2013-04-14 09:02:00,43.0,34.0,-100.00,North,1,0.0,-999.0,69,0.00,,,0.01,,2013-04-14 13:02:00,
2013-04-14 09:12:00,43.0,34.0,-100.00,North,1,0.0,-999.0,69,0.00,,,0.01,,2013-04-14 13:12:00,
2013-04-14 09:23:00,43.0,34.0,-100.00,North,1,0.0,-999.0,69,0.00,,,0.01,,2013-04-14 13:23:00,
2013-04-14 09:33:00,43.0,34.0,-100.00,North,1,0.0,-999.0,69,0.00,,,0.01,,2013-04-14 13:33:00,
2013-04-14 09:42:00,43.0,34.0,-100.00,North,1,0.0,-999.0,69,0.00,,,0.01,,2013-04-14 13:42:00,
2013-04-14 10:02:00,43.0,33.0,-100.00,North,-999,-999.0,-999.0,68,0.00,,,0.01,,2013-04-14 14:02:00,
2013-04-14 10:12:00,43.0,33.0,-100.00,North,-999,-999.0,-999.0,68,0.00,,,0.01,,2013-04-14 14:12:00,
2013-04-14 10:22:00,43.0,33.0,-100.00,North,-999,-999.0,-999.0,68,0.00,,,0.01,,2013-04-14 14:22:00,
2013-04-14 10:32:00,43.0,33.0,-100.00,North,-999,-999.0,-999.0,68,0.00,,,0.01,,2013-04-14 14:32:00,
2013-04-14 10:42:00,43.0,33.0,-100.00,North,-999,-999.0,-999.0,68,0.00,,,0.01,,2013-04-14 14:42:00,
2013-04-14 11:03:00,44.0,33.0,-100.00,North,-999,0.0,-999.0,64,0.00,,,0.01,,2013-04-14 15:03:00,
2013-04-14 11:13:00,44.0,33.0,-100.00,North,-999,0.0,-999.0,64,0.00,,,0.01,,2013-04-14 15:13:00,
2013-04-14 11:23:00,44.0,33.0,-100.00,North,-999,0.0,-999.0,64,0.00,,,0.01,,2013-04-14 15:23:00,
2013-04-14 11:33:00,44.0,33.0,-100.00,North,-999,0.0,-999.0,64,0.00,,,0.01,,2013-04-14 15:33:00,
2013-04-14 11:43:00,44.0,33.0,-100.00,North,-999,0.0,-999.0,64,0.00,,,0.01,,2013-04-14 15:43:00,
2013-04-14 12:05:00,47.0,31.0,-100.00,North,-999,0.0,-999.0,53,0.00,,,0.01,,2013-04-14 16:05:00,
2013-04-14 12:13:00,47.0,31.0,-100.00,North,-999,0.0,-999.0,53,0.00,,,0.01,,2013-04-14 16:13:00,
2013-04-14 12:23:00,47.0,31.0,-100.00,North,-999,0.0,-999.0,53,0.00,,,0.01,,2013-04-14 16:23:00,
2013-04-14 12:33:00,47.0,31.0,-100.00,North,-999,0.0,-999.0,53,0.00,,,0.01,,2013-04-14 16:33:00,
2013-04-14 12:43:00,47.0,31.0,-100.00,North,-999,0.0,-999.0,53,0.00,,,0.01,,2013-04-14 16:43:00,
2013-04-14 13:02:00,46.0,30.0,-100.00,North,-999,-999.0,-999.0,53,0.00,,,0.01,,2013-04-14 17:02:00,
2013-04-14 13:13:00,46.0,30.0,-100.00,North,-999,-999.0,-999.0,53,0.00,,,0.01,,2013-04-14 17:13:00,
2013-04-14 13:22:00,46.0,30.0,-100.00,North,-999,-999.0,-999.0,53,0.00,,,0.01,,2013-04-14 17:22:00,
2013-04-14 13:33:00,46.0,30.0,-100.00,North,-999,-999.0,-999.0,53,0.00,,,0.01,,2013-04-14 17:33:00,
2013-04-14 13:42:00,46.0,30.0,-100.00,North,-999,-999.0,-999.0,53,0.00,,,0.01,,2013-04-14 17:42:00,
2013-04-14 18:03:00,44.0,32.0,-100.00,North,-999,-999.0,-999.0,63,-99.99,,,0.02,,2013-04-14 22:03:00,
2013-04-14 18:13:00,44.0,32.0,-100.00,North,-999,-999.0,-999.0,63,-99.99,,,0.02,,2013-04-14 22:13:00,
2013-04-14 18:23:00,44.0,32.0,-100.00,North,-999,-999.0,-999.0,63,-99.99,,,0.02,,2013-04-14 22:23:00,
2013-04-14 18:33:00,44.0,32.0,-100.00,North,-999,-999.0,-999.0,63,-99.99,,,0.02,,2013-04-14 22:33:00,
2013-04-14 18:44:00,44.0,32.0,-100.00,North,-999,-999.0,-999.0,63,-99.99,,,0.02,,2013-04-14 22:44:00,
2013-04-14 19:02:00,47.0,29.0,-100.00,North,-999,0.0,-999.0,50,0.00,,,-99.99,,2013-04-14 23:02:00,
2013-04-14 19:13:00,47.0,29.0,-100.00,North,-999,0.0,-999.0,50,0.00,,,-99.99,,2013-04-14 23:13:00,
2013-04-14 19:23:00,47.0,29.0,-100.00,North,-999,0.0,-999.0,50,0.00,,,-99.99,,2013-04-14 23:23:00,
2013-04-14 19:33:00,47.0,29.0,-100.00,North,-999,0.0,-999.0,50,0.00,,,-99.99,,2013-04-14 23:33:00,
2013-04-14 19:43:00,47.0,29.0,-100.00,North,-999,0.0,-999.0,50,0.00,,,-99.99,,2013-04-14 23:43:00,
2013-04-14 20:02:00,43.0,31.0,-100.00,North,-999,0.0,-999.0,63,0.00,,,-99.99,,2013-04-15 00:02:00,
2013-04-14 20:13:00,43.0,31.0,-100.00,North,-999,0.0,-999.0,63,0.00,,,-99.99,,2013-04-15 00:13:00,
2013-04-14 20:23:00,43.0,31.0,-100.00,North,-999,0.0,-999.0,63,0.00,,,-99.99,,2013-04-15 00:23:00,
2013-04-14 20:33:00,43.0,31.0,-100.00,North,-999,0.0,-999.0,63,0.00,,,-99.99,,2013-04-15 00:33:00,
2013-04-14 20:42:00,43.0,31.0,-100.00,North,-999,0.0,-999.0,63,0.00,,,-99.99,,2013-04-15 00:42:00,
2013-04-14 21:03:00,41.0,31.0,-100.00,North,-999,-999.0,-999.0,67,0.00,,,0.02,,2013-04-15 01:03:00,
2013-04-14 21:13:00,41.0,31.0,-100.00,North,-999,-999.0,-999.0,67,0.00,,,0.02,,2013-04-15 01:13:00,
2013-04-14 21:23:00,41.0,31.0,-100.00,North,-999,-999.0,-999.0,67,0.00,,,0.02,,2013-04-15 01:23:00,
2013-04-14 21:30:00,39.0,31.0,-100.00,North,-999,-999.0,-999.0,73,0.00,,,0.02,,2013-04-15 01:30:00,
2013-04-14 21:33:00,41.0,31.0,-100.00,North,-999,-999.0,-999.0,67,0.00,,,0.02,,2013-04-15 01:33:00,
2013-04-14 21:42:00,41.0,31.0,-100.00,North,-999,-999.0,-999.0,67,0.00,,,0.02,,2013-04-15 01:42:00,
2013-04-14 22:03:00,39.0,31.0,-100.00,North,-999,-999.0,-999.0,73,0.00,,,0.02,,2013-04-15 02:03:00,
2013-04-14 22:13:00,39.0,31.0,-100.00,North,-999,-999.0,-999.0,73,0.00,,,0.02,,2013-04-15 02:13:00,
2013-04-14 22:22:00,39.0,31.0,-100.00,North,-999,-999.0,-999.0,73,0.00,,,0.02,,2013-04-15 02:22:00,
2013-04-14 23:03:00,38.0,31.0,-100.00,North,1,0.0,-999.0,74,-99.99,,,0.02,,2013-04-15 03:03:00,
2013-04-14 23:12:00,38.0,31.0,-100.00,North,1,0.0,-999.0,74,-99.99,,,0.02,,2013-04-15 03:12:00,
2013-04-14 23:22:00,38.0,31.0,-100.00,North,1,0.0,-999.0,74,-99.99,,,0.02,,2013-04-15 03:22:00,
2013-04-14 23:33:00,38.0,31.0,-100.00,North,1,0.0,-999.0,74,-99.99,,,0.02,,2013-04-15 03:33:00,
2013-04-14 23:43:00,38.0,31.0,-100.00,North,1,0.0,-999.0,74,-99.99,,,0.02,,2013-04-15 03:43:00,